Погода в Ефремове

Погода в Ефремове : погода сейчас, прогноз погоды и архив. Всё, что Вы хотите узнать о погоде в Ефремове!

Поиск расширенной информации на нашем сайте:

Другие новости

Новости СМИ2

Главная страница сайта

Новости сайта

02.10.2013

Напоминаем, что на нашем новом сайте вы можете получить высокодетализированные прогнозы погоды по пунктам России, СНГ и мира (включающие важные для авиации метеовеличины, такие как направление и скорость ветра, видимость, явления погоды, количество и форма облачности, нижняя и верхняя граница облачности), а также ознакомиться с разнообразными материалами по авиационной метеорологии и подборкой полезных ссылок на эту тему.

Сайт Метеоцентр.Азия посвящён разработке технологий оптимизации авиаметеорологического обслуживания, включая проектирование и перспективное создание нескольких автоматизированных авиаметеорологических систем:
- система выпуска высокодетальных прогностических карт явлений погоды для нижнего воздушного пространства по России и ближнему зарубежью;
- система верификации прогнозов TAF (выпускаемых синоптиками официальных АМСГ РФ и ближнего зарубежья) и AUTOTAF (выпускаемых сайтом Метеоцентр.Азия) - выявление ошибок, онлайн-сопоставление с фактической погодой METAR, автоматическое внесение коррективов в прогнозы при резком отклонении фактической погоды от прогноза, подсчёт оправдываемости прогнозов по элементам и в целом;
- система обработки, анализа и отображения авиаметеорологической информации для применения провайдерами метеорологической информации.


Погода в Ефремове - сегодня

Время (UTC), дата Ветер
(°,м/с) 
Видим.   Явления Облачность Т
(°С)
Тd
(°С)
f(%) Тe
(°С)
Pmin
(гПа)
dP
(гПа)
Po
(мм)
O2
(г/м3)
Тmin Tmax R s Состояние
почвы
00 25.04.17 290 (З) 10 км    ясно 
+1.2 -1.2 84 +1  1014.6  1.4  741  297           
03 25.04.17 260 (З) 10 км    ясно 
+0.3 -3.8 74 1016.6  1.9  742  299  -0.5         
06 25.04.17 260 (З) 10 км    ясно 
+7.3 -3.1 48 +7  1018.1  2.1  744  292  -0.5        сухая 
09 25.04.17 260 (З) 10 км    6/1 1000 м верхняя 
[Cu med, cong|Ci fib]
+10.4 -10 23 +10  1018.4  0.6  744  290           
12 25.04.17 240 (ЮЗ) 4{10}  10 км    8/3 600 м верхняя 
[Cu med, cong|Ci fib]
+12.1 -9.3 21 +12  1018.1  -0.1  744  288           
15 25.04.17 250 (З) 3{10}  10 км    4/4 600 м 
[Cu med, cong]
+11.1 -7.7 26 +11  1018.6  0.4  744  289           
18 25.04.17 230 (ЮЗ) 10 км    ясно 
+7.3 -6.1 38 +7  1020.6  1.6  745  293    +12.3       
21 25.04.17 190 (Ю) 10 км    8/0 средняя 
[Ac trans]
+4.7 -5.3 48 +4  1021.3  0.4  746  296           
00 26.04.17 190 (Ю) 10 км    9/0 средняя 
[Ac und]
+6.3 -3.6 49 +6  1020.6  -0.5  745  294           
03 26.04.17 190 (Ю) 10 км    10/0 средняя, верхняя 
[Ac trans|Cs]
+5.6 -2 58 +4  1020.2  -0.5  745  294  +4.5         
06 26.04.17 190 (Ю) 4{10}  10 км    9/0 верхняя 
[Ci fib]
+9.8 +0.8 53 +9  1019.8  745  290  +4.5        сухая 
09 26.04.17 200 (Ю) 6-13{13}  10 км    8/0 верхняя 
[Ci fib]
+15.4 +1 38 +15  1018.4  -0.8  744  284           
12 26.04.17 220 (ЮЗ) 7-14{16}  10 км    9/0 верхняя 
[Ci fib]
+17.9 -2.3 25 +18  1017.3  -0.9  744  281           
15 26.04.17 220 (ЮЗ) 6-14{15}  10 км    9/0 верхняя 
[Cs]
+17.3 -0.8 29 +17  1016.7  -0.6  743  282           
18 26.04.17 200 (Ю) 5{14}  10 км    9/0 средняя, верхняя 
[Ac und|Ci sp]
+14 -2.3 32 +13  1018.1  744  285    +18.4       
21 26.04.17 210 (ЮЗ) 5-10{12}  10 км    5/0 средняя 
[Ac trans]
+12.2 -2 37 +11  1018.6  0.4  744  287           
00 27.04.17 210 (ЮЗ) 4{11}  10 км    9/0 средняя 
[Ac und]
+10.2 -0.7 47 +9  1018.8  744  289           
03 27.04.17 210 (ЮЗ) 4{11}  10 км    9/0 средняя 
[Ac und]
+8.3 -1.3 51 +7  1019.2  0.2  744  291  +8.3         
06 27.04.17 210 (ЮЗ) 6-10{11}  10 км    9/0 средняя 
[Ac und]
+12.3 -3.4 33 +11  1019.5  0.7  745  288  +8.3        сухая 
09 27.04.17 210 (ЮЗ) 6-13{13}  10 км    8/0 верхняя 
[Cs]
+17.4 -4.4 22 +17  1018.7  -0.3  745  283           
12 27.04.17 200 (Ю) 6-17{17}  10 км    8/0 верхняя 
[Cs]
+20.2 -6.9 15 +20  1017.4  -1.1  744  280           
15 27.04.17 210 (ЮЗ) 6-11{17}  10 км    4/0 верхняя 
[Ci fib]
+20.4 -6 16 +20  1016.7  -0.7  743  279           
18 27.04.17 200 (Ю) 4{13}  10 км    9/0 средняя, верхняя 
[Ac trans|Ci fib]
+16.8 -5.2 22 +17  1017.7  0.7  744  283    +21.3       
21 27.04.17 200 (Ю) 10 км    ясно 
+13.1 -4.9 28 +13  1018.8  0.7  744  287           
00 28.04.17 200 (Ю) 10 км    ясно 
+11.4 -4.1 33 +11  1018.9  744  288           
Время (UTC), дата Ветер
(°,м/с) 
Видим.   Явления Облачность Т
(°С)
Тd
(°С)
f(%) Тe
(°С)
Pmin
(гПа)
dP
(гПа)
Po
(мм)
O2
(г/м3)
Тmin Tmax R s Состояние
почвы

Для получения пояснительной информации подведите курсор к названию столбца.

ПОГОДА в Ефремове - архив

Всё, что Вы хотите узнать о погоде в Ефремове - удобно и подробно!

Выберите нужную дату (начиная с 1 января 2015* года) и нажмите кнопку "Найти".
Будут отображены архивные сводки погоды по пункту Ефремов, начиная с указанной даты.


Отображать данные в формате CSV (для использования в таблицах Excel)


Внимание! Наш архив погоды предназначен исключительно для личного некоммерческого использования в познавательных целях. Если Вам необходимы официальные справки о состоянии погоды (для производственных, юридических, коммерческих и т.п. целей), обращайтесь в органы Росгидромета.

*Примечание: данная дата относится к архиву по метеостанциям СССР (Россия, СНГ, Балтия).
Архив по метеостанциям Зарубежной Европы и Азии (кроме Китая) хранится 10 дней, по другим регионам земного шара (Китай, Африка, Америка, Австралия, Океания) - 1 день.

Ефремов - район местоположения метеостанции


Название, широта, долгота, высота метеостанции:
Ефремов 53.2°ш. 38.1°д. 215 м над ур. моря [Российская Федерация]

Дополнительная информация

В oтличие oт бoльшинства пoгoдных сайтoв мы публикуем пoдрoбную метеoинфoрмацию в детальнoм прoфессиoнальнoм фoрмате.

Характеристики температуры и влажнoсти вoздуха измеряются на высoте 2 м в тени вдали oт зданий и деревьев.
Скoрoсть ветра измеряется на высoте 10 м (на урoвне рoста челoвека скoрoсть ветра ниже в 1.5-2 раза). Если метеoстанция нахoдится в гoрoде или в лесу, тo скoрoсть ветра занижена на 2-4 м/с пo сравнению с oткрытым местoм. Скoрoсть ветра над акватoриями крупных рек и oзёр, а также на вершинах хoлмoв на 2-5 м/с выше, чем в oбычных услoвиях.
Атмoсфернoе давление в разных тoчках местнoсти мoжет значительнo oтличаться oт давления на метеoстанции, в зависимoсти oт услoвий рельефа (при пoдъёме на 10 м давление пoнижается примернo на 1 мм рт.ст.).